Time,TemperatureF,DewpointF,PressureIn,WindDirection,WindDirectionDegrees,WindSpeedMPH,WindSpeedGustMPH,Humidity,HourlyPrecipIn,Conditions,Clouds,dailyrainin,SoftwareType,DateUTC
2013-11-20 00:03:00,53.8,44.7,30.11,NNE,23,1.6,2.7,71,0.00,,,0.00,WUHU216HW,2013-11-20 05:03:00,
2013-11-20 00:08:00,53.8,44.7,30.10,NE,45,1.3,2.7,71,0.00,,,0.00,WUHU216HW,2013-11-20 05:08:00,
2013-11-20 00:13:00,53.6,44.5,30.10,NE,45,2.7,2.7,71,0.00,,,0.00,WUHU216HW,2013-11-20 05:13:00,
2013-11-20 00:18:00,53.6,44.5,30.10,NE,45,2.2,2.7,71,0.00,,,0.00,WUHU216HW,2013-11-20 05:18:00,
2013-11-20 00:23:00,53.6,44.5,30.10,NE,45,2.5,2.9,71,0.00,,,0.00,WUHU216HW,2013-11-20 05:23:00,
2013-11-20 00:28:00,53.5,44.3,30.10,NE,45,1.3,2.9,71,0.00,,,0.00,WUHU216HW,2013-11-20 05:28:00,
2013-11-20 00:33:00,53.3,44.1,30.11,NNE,23,0.7,2.5,71,0.00,,,0.00,WUHU216HW,2013-11-20 05:33:00,
2013-11-20 00:38:00,53.3,44.1,30.10,NE,45,2.2,3.4,71,0.00,,,0.00,WUHU216HW,2013-11-20 05:38:00,
2013-11-20 00:43:00,53.5,44.3,30.10,NNE,23,0.7,3.4,71,0.00,,,0.00,WUHU216HW,2013-11-20 05:43:00,
2013-11-20 00:48:00,53.5,44.3,30.10,NNE,23,1.1,2.2,71,0.00,,,0.00,WUHU216HW,2013-11-20 05:48:00,
2013-11-20 00:53:00,53.5,44.3,30.10,NE,45,1.1,1.8,71,0.00,,,0.00,WUHU216HW,2013-11-20 05:53:00,
2013-11-20 00:58:00,53.5,44.3,30.10,NNE,23,1.1,1.6,71,0.00,,,0.00,WUHU216HW,2013-11-20 05:58:00,
2013-11-20 01:03:00,53.5,44.3,30.10,NNE,23,1.1,2.2,71,0.00,,,0.00,WUHU216HW,2013-11-20 06:03:00,
2013-11-20 01:08:00,53.5,44.3,30.10,North,0,1.1,2.2,71,0.00,,,0.00,WUHU216HW,2013-11-20 06:08:00,
2013-11-20 01:14:00,53.5,44.3,30.10,NNE,23,0.7,1.3,71,0.00,,,0.00,WUHU216HW,2013-11-20 06:14:00,
2013-11-20 01:19:00,53.5,44.3,30.10,NNE,23,1.3,1.8,71,0.00,,,0.00,WUHU216HW,2013-11-20 06:19:00,
2013-11-20 01:24:00,53.5,44.3,30.10,NE,45,2.7,2.7,71,0.00,,,0.00,WUHU216HW,2013-11-20 06:24:00,
2013-11-20 01:29:00,53.3,44.1,30.10,NNE,23,0.7,2.7,71,0.00,,,0.00,WUHU216HW,2013-11-20 06:29:00,
2013-11-20 01:34:00,53.5,44.3,30.10,NE,45,2.0,2.0,71,0.00,,,0.00,WUHU216HW,2013-11-20 06:34:00,
2013-11-20 01:39:00,53.5,44.3,30.09,NE,45,2.5,2.9,71,0.00,,,0.00,WUHU216HW,2013-11-20 06:39:00,
2013-11-20 01:44:00,53.5,44.3,30.09,NNE,23,2.0,2.9,71,0.00,,,0.00,WUHU216HW,2013-11-20 06:44:00,
2013-11-20 01:49:00,53.5,43.9,30.10,NNE,23,3.1,4.7,70,0.00,,,0.00,WUHU216HW,2013-11-20 06:49:00,
2013-11-20 01:54:00,53.5,43.9,30.09,NE,45,3.4,4.7,70,0.00,,,0.00,WUHU216HW,2013-11-20 06:54:00,
2013-11-20 01:59:00,53.6,44.1,30.09,NE,45,2.5,3.4,70,0.00,,,0.00,WUHU216HW,2013-11-20 06:59:00,
2013-11-20 02:04:00,53.6,44.1,30.09,NNE,23,2.2,2.5,70,0.00,,,0.00,WUHU216HW,2013-11-20 07:04:00,
2013-11-20 02:09:00,53.6,43.8,30.10,ENE,68,1.8,2.5,69,0.00,,,0.00,WUHU216HW,2013-11-20 07:09:00,
2013-11-20 02:14:00,53.6,43.8,30.10,NE,45,1.8,2.5,69,0.00,,,0.00,WUHU216HW,2013-11-20 07:14:00,
2013-11-20 02:19:00,53.6,43.8,30.10,ENE,68,3.6,3.6,69,0.00,,,0.00,WUHU216HW,2013-11-20 07:19:00,
2013-11-20 02:24:00,53.8,43.9,30.10,NNE,23,1.8,3.6,69,0.00,,,0.00,WUHU216HW,2013-11-20 07:24:00,
2013-11-20 02:29:00,53.8,43.9,30.10,NE,45,1.8,2.7,69,0.00,,,0.00,WUHU216HW,2013-11-20 07:29:00,
2013-11-20 02:34:00,54.0,44.1,30.10,NE,45,3.4,3.8,69,0.00,,,0.00,WUHU216HW,2013-11-20 07:34:00,
2013-11-20 02:39:00,54.0,44.1,30.10,ENE,68,1.3,3.8,69,0.00,,,0.00,WUHU216HW,2013-11-20 07:39:00,
2013-11-20 02:44:00,54.0,44.1,30.10,NE,45,3.4,3.4,69,0.00,,,0.00,WUHU216HW,2013-11-20 07:44:00,
2013-11-20 02:49:00,53.8,43.9,30.10,NE,45,3.4,3.4,69,0.00,,,0.00,WUHU216HW,2013-11-20 07:49:00,
2013-11-20 02:54:00,54.0,44.1,30.10,NE,45,1.1,3.4,69,0.00,,,0.00,WUHU216HW,2013-11-20 07:54:00,
2013-11-20 02:59:00,54.0,44.1,30.10,NNE,23,2.7,3.1,69,0.00,,,0.00,WUHU216HW,2013-11-20 07:59:00,
2013-11-20 03:04:00,54.0,44.5,30.10,North,0,1.6,3.1,70,0.00,,,0.00,WUHU216HW,2013-11-20 08:04:00,
2013-11-20 03:09:00,54.0,44.5,30.10,NE,45,1.1,2.5,70,0.00,,,0.00,WUHU216HW,2013-11-20 08:09:00,
2013-11-20 03:14:00,54.2,44.6,30.10,North,0,2.0,2.5,70,0.00,,,0.00,WUHU216HW,2013-11-20 08:14:00,
2013-11-20 03:19:00,54.2,44.6,30.10,NNE,23,3.4,3.4,70,0.00,,,0.00,WUHU216HW,2013-11-20 08:19:00,
2013-11-20 03:24:00,54.4,44.8,30.10,ENE,68,2.5,4.0,70,0.00,,,0.00,WUHU216HW,2013-11-20 08:24:00,
2013-11-20 03:29:00,54.4,44.8,30.10,North,0,2.0,4.0,70,0.00,,,0.00,WUHU216HW,2013-11-20 08:29:00,
2013-11-20 03:34:00,54.4,44.8,30.10,NE,45,1.3,4.0,70,0.00,,,0.00,WUHU216HW,2013-11-20 08:34:00,
2013-11-20 03:39:00,54.4,45.2,30.10,NE,45,3.4,3.4,71,0.00,,,0.00,WUHU216HW,2013-11-20 08:39:00,
2013-11-20 03:44:00,54.4,44.8,30.11,ENE,68,1.6,3.4,70,0.00,,,0.00,WUHU216HW,2013-11-20 08:44:00,
2013-11-20 03:49:00,54.4,44.8,30.10,ENE,68,2.2,3.4,70,0.00,,,0.00,WUHU216HW,2013-11-20 08:49:00,
2013-11-20 03:54:00,54.4,44.8,30.10,NE,45,6.3,6.3,70,0.00,,,0.00,WUHU216HW,2013-11-20 08:54:00,
2013-11-20 03:59:00,54.4,45.2,30.11,NE,45,2.2,6.3,71,0.00,,,0.00,WUHU216HW,2013-11-20 08:59:00,
2013-11-20 04:04:00,54.4,45.2,30.11,NNE,23,1.6,3.8,71,0.00,,,0.00,WUHU216HW,2013-11-20 09:04:00,
2013-11-20 04:09:00,54.2,45.0,30.10,NE,45,1.6,3.4,71,0.00,,,0.00,WUHU216HW,2013-11-20 09:09:00,
2013-11-20 04:14:00,54.2,45.0,30.10,NNE,23,1.1,2.5,71,0.00,,,0.00,WUHU216HW,2013-11-20 09:14:00,
2013-11-20 04:19:00,54.2,45.0,30.10,NE,45,3.4,3.4,71,0.00,,,0.00,WUHU216HW,2013-11-20 09:19:00,
2013-11-20 04:24:00,54.0,44.8,30.10,NNE,23,2.9,3.8,71,0.00,,,0.00,WUHU216HW,2013-11-20 09:24:00,
2013-11-20 04:29:00,54.0,45.2,30.10,NE,45,2.0,3.8,72,0.00,,,0.00,WUHU216HW,2013-11-20 09:29:00,
2013-11-20 04:34:00,54.0,45.2,30.11,NNE,23,1.8,2.7,72,0.00,,,0.00,WUHU216HW,2013-11-20 09:34:00,
2013-11-20 04:39:00,54.0,45.2,30.11,ENE,68,1.8,2.7,72,0.00,,,0.00,WUHU216HW,2013-11-20 09:39:00,
2013-11-20 04:44:00,54.0,45.2,30.11,NE,45,1.6,3.4,72,0.00,,,0.00,WUHU216HW,2013-11-20 09:44:00,
2013-11-20 04:49:00,53.8,45.0,30.11,NNE,23,1.6,3.4,72,0.00,,,0.00,WUHU216HW,2013-11-20 09:49:00,
2013-11-20 04:54:00,53.8,45.4,30.11,NE,45,2.2,2.5,73,0.00,,,0.00,WUHU216HW,2013-11-20 09:54:00,
2013-11-20 04:59:00,53.8,45.4,30.11,NE,45,1.6,2.7,73,0.00,,,0.00,WUHU216HW,2013-11-20 09:59:00,
2013-11-20 05:04:00,53.8,45.4,30.12,NE,45,1.3,3.8,73,0.00,,,0.00,WUHU216HW,2013-11-20 10:04:00,
2013-11-20 05:09:00,53.8,45.4,30.12,NE,45,1.1,3.8,73,0.00,,,0.00,WUHU216HW,2013-11-20 10:09:00,
2013-11-20 05:14:00,53.6,45.2,30.12,NE,45,2.5,2.7,73,0.00,,,0.00,WUHU216HW,2013-11-20 10:14:00,
2013-11-20 05:19:00,53.6,45.2,30.11,NE,45,1.8,4.0,73,0.00,,,0.00,WUHU216HW,2013-11-20 10:19:00,
2013-11-20 05:24:00,53.5,45.0,30.11,NNE,23,2.5,4.0,73,0.00,,,0.00,WUHU216HW,2013-11-20 10:24:00,
2013-11-20 05:29:00,53.3,44.8,30.12,NNE,23,3.4,3.8,73,0.00,,,0.00,WUHU216HW,2013-11-20 10:29:00,
2013-11-20 05:34:00,53.3,44.5,30.12,NNE,23,0.7,3.4,72,0.00,,,0.00,WUHU216HW,2013-11-20 10:34:00,
2013-11-20 05:39:00,53.1,44.3,30.12,NE,45,4.7,4.7,72,0.00,,,0.00,WUHU216HW,2013-11-20 10:39:00,
2013-11-20 05:44:00,53.1,44.3,30.12,NE,45,2.0,4.7,72,0.00,,,0.00,WUHU216HW,2013-11-20 10:44:00,
2013-11-20 05:49:00,52.9,44.6,30.12,NE,45,2.7,2.7,73,0.00,,,0.00,WUHU216HW,2013-11-20 10:49:00,
2013-11-20 05:54:00,52.7,44.4,30.12,NNE,23,1.3,2.7,73,0.00,,,0.00,WUHU216HW,2013-11-20 10:54:00,
2013-11-20 05:59:00,52.7,44.4,30.12,NNE,23,1.8,2.9,73,0.00,,,0.00,WUHU216HW,2013-11-20 10:59:00,
2013-11-20 06:04:00,52.6,44.2,30.12,NNE,23,1.8,3.4,73,0.00,,,0.00,WUHU216HW,2013-11-20 11:04:00,
2013-11-20 06:09:00,52.6,44.2,30.12,NE,45,2.7,3.4,73,0.00,,,0.00,WUHU216HW,2013-11-20 11:09:00,
2013-11-20 06:14:00,52.6,44.2,30.13,NE,45,2.7,3.4,73,0.00,,,0.00,WUHU216HW,2013-11-20 11:14:00,
2013-11-20 06:19:00,52.4,44.0,30.13,NE,45,1.8,3.1,73,0.00,,,0.00,WUHU216HW,2013-11-20 11:19:00,
2013-11-20 06:24:00,52.4,44.0,30.13,NNE,23,1.1,3.1,73,0.00,,,0.00,WUHU216HW,2013-11-20 11:24:00,
2013-11-20 06:29:00,52.4,44.4,30.13,NNE,23,1.3,3.4,74,0.00,,,0.00,WUHU216HW,2013-11-20 11:29:00,
2013-11-20 06:34:00,52.4,44.4,30.13,NE,45,4.0,4.0,74,0.00,,,0.00,WUHU216HW,2013-11-20 11:34:00,
2013-11-20 06:39:00,52.2,44.2,30.13,NE,45,3.4,4.0,74,0.00,,,0.00,WUHU216HW,2013-11-20 11:39:00,
2013-11-20 06:44:00,52.2,44.2,30.13,NE,45,2.9,3.6,74,0.00,,,0.00,WUHU216HW,2013-11-20 11:44:00,
2013-11-20 06:49:00,52.2,44.6,30.13,NNE,23,1.1,4.7,75,0.00,,,0.00,WUHU216HW,2013-11-20 11:49:00,
2013-11-20 06:54:00,52.2,44.6,30.14,North,0,1.1,4.7,75,0.00,,,0.00,WUHU216HW,2013-11-20 11:54:00,
2013-11-20 06:59:00,52.0,44.4,30.14,NE,45,2.7,2.7,75,0.00,,,0.00,WUHU216HW,2013-11-20 11:59:00,
2013-11-20 07:04:00,52.0,44.4,30.14,NE,45,2.5,3.1,75,0.00,,,0.00,WUHU216HW,2013-11-20 12:04:00,
2013-11-20 07:09:00,52.0,44.4,30.14,NNE,23,2.5,3.1,75,0.00,,,0.00,WUHU216HW,2013-11-20 12:09:00,
2013-11-20 07:14:00,52.0,44.4,30.14,NNE,23,1.6,2.5,75,0.00,,,0.00,WUHU216HW,2013-11-20 12:14:00,
2013-11-20 07:19:00,52.0,44.4,30.14,ENE,68,2.2,3.4,75,0.00,,,0.00,WUHU216HW,2013-11-20 12:19:00,
2013-11-20 07:24:00,52.2,44.6,30.15,NE,45,2.2,3.4,75,0.00,,,0.00,WUHU216HW,2013-11-20 12:24:00,
2013-11-20 07:29:00,52.2,44.9,30.15,NE,45,1.8,2.9,76,0.00,,,0.00,WUHU216HW,2013-11-20 12:29:00,
2013-11-20 07:34:00,52.2,44.9,30.15,NNE,23,1.1,4.5,76,0.00,,,0.00,WUHU216HW,2013-11-20 12:34:00,
2013-11-20 07:39:00,52.4,45.1,30.15,ENE,68,4.0,4.5,76,0.00,,,0.00,WUHU216HW,2013-11-20 12:39:00,
2013-11-20 07:44:00,52.4,45.1,30.15,NE,45,1.8,4.0,76,0.00,,,0.00,WUHU216HW,2013-11-20 12:44:00,
2013-11-20 07:49:00,52.6,45.2,30.15,NNE,23,4.0,4.0,76,0.00,,,0.00,WUHU216HW,2013-11-20 12:49:00,
2013-11-20 07:54:00,52.6,45.2,30.15,NE,45,2.9,4.0,76,0.00,,,0.00,WUHU216HW,2013-11-20 12:54:00,
2013-11-20 07:59:00,52.6,45.2,30.16,NE,45,1.8,3.4,76,0.00,,,0.00,WUHU216HW,2013-11-20 12:59:00,
2013-11-20 08:04:00,52.7,45.4,30.16,North,0,1.8,3.1,76,0.00,,,0.00,WUHU216HW,2013-11-20 13:04:00,
2013-11-20 08:09:00,52.7,45.7,30.17,NE,45,2.2,3.1,77,0.00,,,0.00,WUHU216HW,2013-11-20 13:09:00,
2013-11-20 08:14:00,52.9,45.9,30.17,NNE,23,1.8,4.7,77,0.00,,,0.00,WUHU216HW,2013-11-20 13:14:00,
2013-11-20 08:19:00,52.9,45.9,30.16,NNE,23,1.1,4.7,77,0.00,,,0.00,WUHU216HW,2013-11-20 13:19:00,
2013-11-20 08:24:00,53.1,46.1,30.17,North,0,3.1,3.4,77,0.00,,,0.00,WUHU216HW,2013-11-20 13:24:00,
2013-11-20 08:29:00,53.6,46.6,30.17,NE,45,2.5,4.9,77,0.00,,,0.00,WUHU216HW,2013-11-20 13:29:00,
2013-11-20 08:34:00,54.4,47.0,30.17,NNE,23,1.1,4.9,76,0.00,,,0.00,WUHU216HW,2013-11-20 13:34:00,
2013-11-20 08:39:00,54.7,47.6,30.17,NNE,23,3.1,3.6,77,0.00,,,0.00,WUHU216HW,2013-11-20 13:39:00,
2013-11-20 08:44:00,54.9,47.8,30.18,NE,45,2.7,4.5,77,0.00,,,0.00,WUHU216HW,2013-11-20 13:44:00,
2013-11-20 08:49:00,55.3,47.8,30.17,NE,45,3.4,4.5,76,0.00,,,0.00,WUHU216HW,2013-11-20 13:49:00,
2013-11-20 08:54:00,55.4,48.0,30.17,NNE,23,2.2,4.5,76,0.00,,,0.00,WUHU216HW,2013-11-20 13:54:00,
2013-11-20 08:59:00,55.6,48.2,30.18,NE,45,4.7,4.7,76,0.00,,,0.00,WUHU216HW,2013-11-20 13:59:00,
2013-11-20 09:04:00,55.6,48.2,30.18,NE,45,3.4,4.7,76,0.00,,,0.00,WUHU216HW,2013-11-20 14:04:00,
2013-11-20 09:09:00,55.4,48.0,30.18,ENE,68,3.6,4.0,76,0.00,,,0.00,WUHU216HW,2013-11-20 14:09:00,
2013-11-20 09:14:00,55.6,48.2,30.19,NNE,23,3.4,3.6,76,0.00,,,0.00,WUHU216HW,2013-11-20 14:14:00,
2013-11-20 09:19:00,55.6,48.2,30.19,ENE,68,2.5,4.3,76,0.00,,,0.00,WUHU216HW,2013-11-20 14:19:00,
2013-11-20 09:24:00,55.8,48.3,30.19,ENE,68,2.5,4.3,76,0.00,,,0.00,WUHU216HW,2013-11-20 14:24:00,
2013-11-20 09:29:00,56.2,48.6,30.19,East,90,1.8,4.5,76,0.00,,,0.00,WUHU216HW,2013-11-20 14:29:00,
2013-11-20 09:34:00,56.5,49.0,30.20,NE,45,3.4,4.5,76,0.00,,,0.00,WUHU216HW,2013-11-20 14:34:00,
2013-11-20 09:39:00,56.7,49.1,30.20,NNE,23,2.9,4.0,76,0.00,,,0.00,WUHU216HW,2013-11-20 14:39:00,
2013-11-20 09:44:00,57.1,49.1,30.20,ENE,68,3.6,4.3,75,0.00,,,0.00,WUHU216HW,2013-11-20 14:44:00,
2013-11-20 09:49:00,57.1,49.1,30.20,NNE,23,3.8,4.9,75,0.00,,,0.00,WUHU216HW,2013-11-20 14:49:00,
2013-11-20 09:54:00,56.9,49.3,30.20,ENE,68,1.8,4.9,76,0.00,,,0.00,WUHU216HW,2013-11-20 14:54:00,
2013-11-20 09:59:00,57.2,49.7,30.20,North,0,2.5,4.9,76,0.00,,,0.00,WUHU216HW,2013-11-20 14:59:00,
2013-11-20 10:04:00,57.2,49.7,30.20,NE,45,5.6,5.6,76,0.00,,,0.00,WUHU216HW,2013-11-20 15:04:00,
2013-11-20 10:09:00,57.6,50.0,30.21,NE,45,3.4,5.6,76,0.00,,,0.00,WUHU216HW,2013-11-20 15:09:00,
2013-11-20 10:14:00,58.0,50.4,30.21,NNE,23,2.5,4.0,76,0.00,,,0.00,WUHU216HW,2013-11-20 15:14:00,
2013-11-20 10:19:00,58.1,50.6,30.21,ENE,68,4.0,4.5,76,0.00,,,0.00,WUHU216HW,2013-11-20 15:19:00,
2013-11-20 10:24:00,58.1,50.2,30.21,East,90,2.9,4.5,75,0.00,,,0.00,WUHU216HW,2013-11-20 15:24:00,
2013-11-20 10:29:00,58.1,50.2,30.21,NE,45,1.8,4.0,75,0.00,,,0.00,WUHU216HW,2013-11-20 15:29:00,
2013-11-20 10:34:00,58.3,50.8,30.21,NNE,23,1.1,3.6,76,0.00,,,0.00,WUHU216HW,2013-11-20 15:34:00,
2013-11-20 10:39:00,58.7,50.8,30.21,NE,45,6.9,6.9,75,0.00,,,0.00,WUHU216HW,2013-11-20 15:39:00,
2013-11-20 10:44:00,58.5,50.6,30.21,ENE,68,6.9,6.9,75,0.00,,,0.00,WUHU216HW,2013-11-20 15:44:00,
2013-11-20 10:49:00,58.0,50.4,30.20,ENE,68,3.4,6.9,76,0.00,,,0.00,WUHU216HW,2013-11-20 15:49:00,
2013-11-20 10:54:00,58.3,50.8,30.21,ENE,68,4.0,4.5,76,0.00,,,0.00,WUHU216HW,2013-11-20 15:54:00,
2013-11-20 10:59:00,58.9,51.3,30.20,ENE,68,2.5,4.7,76,0.00,,,0.00,WUHU216HW,2013-11-20 15:59:00,
2013-11-20 11:04:00,59.4,51.5,30.20,ENE,68,1.8,4.7,75,0.00,,,0.00,WUHU216HW,2013-11-20 16:04:00,
2013-11-20 11:09:00,59.8,51.5,30.20,NE,45,3.4,4.7,74,0.00,,,0.00,WUHU216HW,2013-11-20 16:09:00,
2013-11-20 11:14:00,59.9,51.7,30.20,NE,45,4.7,4.7,74,0.00,,,0.00,WUHU216HW,2013-11-20 16:14:00,
2013-11-20 11:19:00,59.9,51.3,30.20,NE,45,5.1,5.4,73,0.00,,,0.00,WUHU216HW,2013-11-20 16:19:00,
2013-11-20 11:24:00,59.9,51.7,30.20,NE,45,4.0,5.4,74,0.00,,,0.00,WUHU216HW,2013-11-20 16:24:00,
2013-11-20 11:29:00,59.9,51.7,30.20,NE,45,3.6,4.7,74,0.00,,,0.00,WUHU216HW,2013-11-20 16:29:00,
2013-11-20 11:34:00,59.9,51.7,30.20,ENE,68,2.2,6.0,74,0.00,,,0.00,WUHU216HW,2013-11-20 16:34:00,
2013-11-20 11:39:00,60.1,51.8,30.20,ENE,68,4.9,6.0,74,0.00,,,0.00,WUHU216HW,2013-11-20 16:39:00,
2013-11-20 11:44:00,60.3,51.7,30.20,NE,45,2.0,4.9,73,0.00,,,0.00,WUHU216HW,2013-11-20 16:44:00,
2013-11-20 11:49:00,60.5,51.8,30.19,ENE,68,4.5,5.4,73,0.00,,,0.00,WUHU216HW,2013-11-20 16:49:00,
2013-11-20 11:54:00,60.5,52.2,30.19,ENE,68,4.3,5.4,74,0.00,,,0.00,WUHU216HW,2013-11-20 16:54:00,
2013-11-20 11:59:00,60.5,51.8,30.19,East,90,4.0,5.4,73,0.00,,,0.00,WUHU216HW,2013-11-20 16:59:00,
2013-11-20 12:04:00,60.5,51.8,30.19,NE,45,3.8,5.6,73,0.00,,,0.00,WUHU216HW,2013-11-20 17:04:00,
2013-11-20 12:09:00,60.7,52.0,30.19,East,90,4.7,5.6,73,0.00,,,0.00,WUHU216HW,2013-11-20 17:09:00,
2013-11-20 12:14:00,60.8,52.2,30.18,ENE,68,3.8,5.6,73,0.00,,,0.00,WUHU216HW,2013-11-20 17:14:00,
2013-11-20 12:19:00,61.2,52.6,30.18,NE,45,5.4,5.6,73,0.00,,,0.00,WUHU216HW,2013-11-20 17:19:00,
2013-11-20 12:24:00,61.2,52.6,30.18,NE,45,4.0,5.4,73,0.00,,,0.00,WUHU216HW,2013-11-20 17:24:00,
2013-11-20 12:29:00,61.0,52.4,30.18,ENE,68,2.9,4.9,73,0.00,,,0.00,WUHU216HW,2013-11-20 17:29:00,
2013-11-20 12:34:00,61.7,53.0,30.18,ENE,68,1.8,4.0,73,0.00,,,0.00,WUHU216HW,2013-11-20 17:34:00,
2013-11-20 12:39:00,62.1,53.0,30.18,NE,45,3.4,5.4,72,0.00,,,0.00,WUHU216HW,2013-11-20 17:39:00,
2013-11-20 12:44:00,62.1,53.4,30.18,NE,45,2.0,5.4,73,0.00,,,0.00,WUHU216HW,2013-11-20 17:44:00,
2013-11-20 12:49:00,61.7,52.7,30.18,NNE,23,4.3,6.0,72,0.00,,,0.00,WUHU216HW,2013-11-20 17:49:00,
2013-11-20 12:54:00,61.6,52.5,30.17,NE,45,2.2,6.0,72,0.00,,,0.00,WUHU216HW,2013-11-20 17:54:00,
2013-11-20 12:59:00,61.6,52.5,30.17,ENE,68,1.6,4.3,72,0.00,,,0.00,WUHU216HW,2013-11-20 17:59:00,
2013-11-20 13:04:00,61.6,52.5,30.18,ENE,68,3.4,4.3,72,0.00,,,0.00,WUHU216HW,2013-11-20 18:04:00,
2013-11-20 13:10:00,61.7,52.7,30.18,East,90,4.5,4.5,72,0.00,,,0.00,WUHU216HW,2013-11-20 18:10:00,
2013-11-20 13:15:00,61.6,52.5,30.18,ENE,68,2.9,4.5,72,0.00,,,0.00,WUHU216HW,2013-11-20 18:15:00,
2013-11-20 13:20:00,61.4,52.7,30.18,ENE,68,3.4,4.7,73,0.00,,,0.00,WUHU216HW,2013-11-20 18:20:00,
2013-11-20 13:25:00,61.0,52.4,30.18,NE,45,2.5,4.7,73,0.00,,,0.00,WUHU216HW,2013-11-20 18:25:00,
2013-11-20 13:30:00,60.8,52.2,30.18,NNE,23,3.4,4.3,73,0.00,,,0.00,WUHU216HW,2013-11-20 18:30:00,
2013-11-20 13:35:00,60.7,52.0,30.18,NNE,23,2.5,3.6,73,0.00,,,0.00,WUHU216HW,2013-11-20 18:35:00,
2013-11-20 13:40:00,60.7,52.0,30.18,NE,45,5.6,5.6,73,0.00,,,0.00,WUHU216HW,2013-11-20 18:40:00,
2013-11-20 13:45:00,60.7,52.4,30.17,ENE,68,2.7,5.6,74,0.00,,,0.00,WUHU216HW,2013-11-20 18:45:00,
2013-11-20 13:50:00,61.0,52.8,30.17,NE,45,4.9,4.9,74,0.00,,,0.00,WUHU216HW,2013-11-20 18:50:00,
2013-11-20 13:55:00,61.2,52.9,30.17,North,0,1.8,4.9,74,0.00,,,0.00,WUHU216HW,2013-11-20 18:55:00,
2013-11-20 14:00:00,61.2,52.6,30.17,ENE,68,3.6,4.3,73,0.00,,,0.00,WUHU216HW,2013-11-20 19:00:00,
2013-11-20 14:05:00,61.2,52.6,30.17,NE,45,3.6,4.0,73,0.00,,,0.00,WUHU216HW,2013-11-20 19:05:00,
2013-11-20 14:10:00,61.2,52.6,30.17,ENE,68,3.6,4.0,73,0.00,,,0.00,WUHU216HW,2013-11-20 19:10:00,
2013-11-20 14:15:00,61.2,52.6,30.17,ENE,68,1.1,3.8,73,0.00,,,0.00,WUHU216HW,2013-11-20 19:15:00,
2013-11-20 14:20:00,61.4,52.7,30.16,NE,45,5.4,5.4,73,0.00,,,0.00,WUHU216HW,2013-11-20 19:20:00,
2013-11-20 14:25:00,61.2,52.6,30.17,NNE,23,4.0,5.4,73,0.00,,,0.00,WUHU216HW,2013-11-20 19:25:00,
2013-11-20 14:30:00,61.2,52.6,30.17,NE,45,2.5,4.0,73,0.00,,,0.00,WUHU216HW,2013-11-20 19:30:00,
2013-11-20 14:35:00,61.2,52.6,30.17,NE,45,2.7,4.3,73,0.00,,,0.00,WUHU216HW,2013-11-20 19:35:00,
2013-11-20 14:40:00,61.2,52.6,30.16,ENE,68,2.0,4.3,73,0.00,,,0.00,WUHU216HW,2013-11-20 19:40:00,
2013-11-20 14:45:00,61.0,52.4,30.16,ENE,68,3.4,6.9,73,0.00,,,0.00,WUHU216HW,2013-11-20 19:45:00,
2013-11-20 14:50:00,61.0,52.4,30.16,NE,45,1.1,6.9,73,0.00,,,0.00,WUHU216HW,2013-11-20 19:50:00,
2013-11-20 14:55:00,60.8,52.6,30.16,East,90,1.8,5.4,74,0.00,,,0.00,WUHU216HW,2013-11-20 19:55:00,
2013-11-20 15:00:00,60.5,52.2,30.16,ENE,68,2.7,5.4,74,0.00,,,0.00,WUHU216HW,2013-11-20 20:00:00,
2013-11-20 15:05:00,60.3,52.4,30.16,NE,45,3.4,3.8,75,0.00,,,0.00,WUHU216HW,2013-11-20 20:05:00,
2013-11-20 15:10:00,60.5,52.6,30.16,NE,45,2.2,5.1,75,0.00,,,0.00,WUHU216HW,2013-11-20 20:10:00,
2013-11-20 15:15:00,60.5,52.6,30.16,ENE,68,3.1,5.1,75,0.00,,,0.00,WUHU216HW,2013-11-20 20:15:00,
2013-11-20 15:20:00,60.3,52.4,30.16,NE,45,1.1,4.7,75,0.00,,,0.00,WUHU216HW,2013-11-20 20:20:00,
2013-11-20 15:25:00,60.3,52.4,30.17,NNE,23,3.6,4.7,75,0.00,,,0.00,WUHU216HW,2013-11-20 20:25:00,
2013-11-20 15:30:00,60.3,52.4,30.17,ENE,68,1.8,4.7,75,0.00,,,0.00,WUHU216HW,2013-11-20 20:30:00,
2013-11-20 15:35:00,60.3,52.7,30.17,NE,45,3.1,5.6,76,0.00,,,0.00,WUHU216HW,2013-11-20 20:35:00,
2013-11-20 15:40:00,60.1,52.6,30.17,NNE,23,2.7,5.6,76,0.00,,,0.00,WUHU216HW,2013-11-20 20:40:00,
2013-11-20 15:45:00,59.9,52.4,30.17,ENE,68,2.5,4.5,76,0.00,,,0.00,WUHU216HW,2013-11-20 20:45:00,
2013-11-20 15:50:00,60.1,52.9,30.17,ENE,68,3.4,4.7,77,0.00,,,0.00,WUHU216HW,2013-11-20 20:50:00,
2013-11-20 15:55:00,60.1,52.9,30.17,NE,45,3.1,4.7,77,0.00,,,0.00,WUHU216HW,2013-11-20 20:55:00,
2013-11-20 16:00:00,60.1,52.9,30.18,NE,45,2.2,4.0,77,0.00,,,0.00,WUHU216HW,2013-11-20 21:00:00,
2013-11-20 16:05:00,59.9,52.7,30.18,ENE,68,3.1,4.0,77,0.00,,,0.00,WUHU216HW,2013-11-20 21:05:00,
2013-11-20 16:10:00,59.9,52.7,30.18,NE,45,2.5,3.8,77,0.00,,,0.00,WUHU216HW,2013-11-20 21:10:00,
2013-11-20 16:15:00,59.9,52.7,30.18,NNE,23,2.5,3.4,77,0.00,,,0.00,WUHU216HW,2013-11-20 21:15:00,
2013-11-20 16:20:00,59.8,52.6,30.18,NE,45,3.1,3.8,77,0.00,,,0.00,WUHU216HW,2013-11-20 21:20:00,
2013-11-20 16:25:00,59.8,52.6,30.18,NE,45,1.3,4.0,77,0.00,,,0.00,WUHU216HW,2013-11-20 21:25:00,
2013-11-20 16:30:00,59.6,52.4,30.18,NNE,23,0.9,4.0,77,0.00,,,0.00,WUHU216HW,2013-11-20 21:30:00,
2013-11-20 16:35:00,59.6,52.4,30.18,NNE,23,2.0,3.4,77,0.00,,,0.00,WUHU216HW,2013-11-20 21:35:00,
2013-11-20 16:40:00,59.6,52.4,30.18,NE,45,2.7,3.4,77,0.00,,,0.00,WUHU216HW,2013-11-20 21:40:00,
2013-11-20 16:45:00,59.4,52.2,30.18,NE,45,2.5,4.0,77,0.00,,,0.00,WUHU216HW,2013-11-20 21:45:00,
2013-11-20 16:50:00,59.4,52.6,30.18,ENE,68,2.5,4.0,78,0.00,,,0.00,WUHU216HW,2013-11-20 21:50:00,
2013-11-20 16:55:00,59.4,52.6,30.18,NE,45,1.8,2.7,78,0.00,,,0.00,WUHU216HW,2013-11-20 21:55:00,
2013-11-20 17:00:00,59.2,52.4,30.18,NNE,23,1.1,3.4,78,0.00,,,0.00,WUHU216HW,2013-11-20 22:00:00,
2013-11-20 17:05:00,59.2,52.4,30.18,ENE,68,2.0,3.4,78,0.00,,,0.00,WUHU216HW,2013-11-20 22:05:00,
2013-11-20 17:10:00,59.2,52.4,30.19,NNE,23,2.7,2.9,78,0.00,,,0.00,WUHU216HW,2013-11-20 22:10:00,
2013-11-20 17:15:00,59.0,52.2,30.19,NE,45,3.1,3.1,78,0.00,,,0.00,WUHU216HW,2013-11-20 22:15:00,
2013-11-20 17:20:00,59.0,52.2,30.19,NE,45,3.4,3.6,78,0.00,,,0.00,WUHU216HW,2013-11-20 22:20:00,
2013-11-20 17:25:00,58.9,52.0,30.19,ENE,68,1.3,4.0,78,0.00,,,0.00,WUHU216HW,2013-11-20 22:25:00,
2013-11-20 17:30:00,58.9,52.0,30.19,NE,45,2.7,4.0,78,0.00,,,0.00,WUHU216HW,2013-11-20 22:30:00,
2013-11-20 17:35:00,58.7,51.8,30.20,ENE,68,2.0,3.4,78,0.00,,,0.00,WUHU216HW,2013-11-20 22:35:00,
2013-11-20 17:40:00,58.7,51.8,30.20,NNE,23,1.1,4.0,78,0.00,,,0.00,WUHU216HW,2013-11-20 22:40:00,
2013-11-20 17:45:00,58.7,52.2,30.20,NE,45,1.3,4.0,79,0.00,,,0.00,WUHU216HW,2013-11-20 22:45:00,
2013-11-20 17:50:00,58.5,51.7,30.20,NE,45,1.1,3.4,78,0.00,,,0.00,WUHU216HW,2013-11-20 22:50:00,
2013-11-20 17:55:00,58.5,51.7,30.21,ENE,68,1.8,3.1,78,0.00,,,0.00,WUHU216HW,2013-11-20 22:55:00,
2013-11-20 18:00:00,58.5,51.7,30.21,NNE,23,1.8,3.1,78,0.00,,,0.00,WUHU216HW,2013-11-20 23:00:00,
2013-11-20 18:05:00,58.5,52.0,30.21,NE,45,2.5,3.1,79,0.00,,,0.00,WUHU216HW,2013-11-20 23:05:00,
2013-11-20 18:10:00,58.5,52.0,30.21,NE,45,2.2,2.7,79,0.00,,,0.00,WUHU216HW,2013-11-20 23:10:00,
2013-11-20 18:15:00,58.5,52.0,30.21,NE,45,2.7,3.1,79,0.00,,,0.00,WUHU216HW,2013-11-20 23:15:00,
2013-11-20 18:20:00,58.5,52.0,30.22,NE,45,4.3,4.3,79,0.00,,,0.00,WUHU216HW,2013-11-20 23:20:00,
2013-11-20 18:25:00,58.3,51.8,30.22,NE,45,1.8,4.3,79,0.00,,,0.00,WUHU216HW,2013-11-20 23:25:00,
2013-11-20 18:30:00,58.1,51.7,30.22,NE,45,2.7,3.4,79,0.00,,,0.00,WUHU216HW,2013-11-20 23:30:00,
2013-11-20 18:35:00,58.1,51.7,30.22,NE,45,2.5,3.4,79,0.00,,,0.00,WUHU216HW,2013-11-20 23:35:00,
2013-11-20 18:40:00,58.1,51.7,30.23,NNE,23,2.7,4.3,79,0.00,,,0.00,WUHU216HW,2013-11-20 23:40:00,
2013-11-20 18:45:00,58.1,51.7,30.23,NE,45,1.1,4.3,79,0.00,,,0.00,WUHU216HW,2013-11-20 23:45:00,
2013-11-20 18:50:00,58.1,51.7,30.23,NE,45,1.3,2.7,79,0.00,,,0.00,WUHU216HW,2013-11-20 23:50:00,
2013-11-20 18:55:00,58.1,51.7,30.23,ENE,68,2.2,2.5,79,0.00,,,0.00,WUHU216HW,2013-11-20 23:55:00,
2013-11-20 19:00:00,58.0,51.5,30.23,NE,45,2.5,3.1,79,0.00,,,0.00,WUHU216HW,2013-11-21 00:00:00,
2013-11-20 19:05:00,58.0,51.5,30.23,ENE,68,1.3,3.6,79,0.00,,,0.00,WUHU216HW,2013-11-21 00:05:00,
2013-11-20 19:10:00,58.0,51.5,30.23,NNE,23,2.0,3.6,79,0.00,,,0.00,WUHU216HW,2013-11-21 00:10:00,
2013-11-20 19:15:00,57.8,51.3,30.24,NNE,23,3.4,3.4,79,0.00,,,0.00,WUHU216HW,2013-11-21 00:15:00,
2013-11-20 19:20:00,57.6,51.1,30.24,NE,45,2.9,3.6,79,0.00,,,0.00,WUHU216HW,2013-11-21 00:20:00,
2013-11-20 19:25:00,57.6,51.1,30.23,NE,45,2.7,3.6,79,0.00,,,0.00,WUHU216HW,2013-11-21 00:25:00,
2013-11-20 19:30:00,57.2,51.1,30.23,ENE,68,3.1,4.3,80,0.00,,,0.00,WUHU216HW,2013-11-21 00:30:00,
2013-11-20 19:35:00,57.2,51.1,30.23,NE,45,1.8,4.3,80,0.00,,,0.00,WUHU216HW,2013-11-21 00:35:00,
2013-11-20 19:40:00,57.1,50.9,30.23,NE,45,2.7,3.8,80,0.00,,,0.00,WUHU216HW,2013-11-21 00:40:00,
2013-11-20 19:45:00,56.9,51.1,30.23,ENE,68,3.8,3.8,81,0.00,,,0.00,WUHU216HW,2013-11-21 00:45:00,
2013-11-20 19:50:00,56.5,51.0,30.23,NE,45,3.4,3.8,82,0.00,,,0.00,WUHU216HW,2013-11-21 00:50:00,
2013-11-20 19:55:00,56.5,51.0,30.23,NNE,23,3.6,4.7,82,0.00,,,0.00,WUHU216HW,2013-11-21 00:55:00,
2013-11-20 20:00:00,56.3,50.9,30.23,NE,45,2.7,4.7,82,0.00,,,0.00,WUHU216HW,2013-11-21 01:00:00,
2013-11-20 20:05:00,56.2,50.7,30.23,ENE,68,3.1,4.3,82,0.00,,,0.00,WUHU216HW,2013-11-21 01:05:00,
2013-11-20 20:10:00,56.2,50.7,30.23,NE,45,1.8,3.1,82,0.00,,,0.00,WUHU216HW,2013-11-21 01:10:00,
2013-11-20 20:15:00,56.2,50.7,30.24,NNE,23,0.7,2.2,82,0.00,,,0.00,WUHU216HW,2013-11-21 01:15:00,
2013-11-20 20:20:00,56.2,50.7,30.24,NNE,23,1.1,1.8,82,0.00,,,0.00,WUHU216HW,2013-11-21 01:20:00,
2013-11-20 20:25:00,56.2,50.7,30.24,NE,45,1.1,2.2,82,0.00,,,0.00,WUHU216HW,2013-11-21 01:25:00,
2013-11-20 20:30:00,56.2,50.7,30.24,NNE,23,1.6,2.5,82,0.00,,,0.00,WUHU216HW,2013-11-21 01:30:00,
2013-11-20 20:35:00,56.2,50.7,30.24,North,0,1.8,3.1,82,0.00,,,0.00,WUHU216HW,2013-11-21 01:35:00,
2013-11-20 20:40:00,56.3,50.9,30.24,NE,45,2.2,3.1,82,0.00,,,0.00,WUHU216HW,2013-11-21 01:40:00,
2013-11-20 20:45:00,56.3,50.9,30.24,NNE,23,1.3,2.2,82,0.00,,,0.00,WUHU216HW,2013-11-21 01:45:00,
2013-11-20 20:50:00,56.5,51.0,30.24,North,0,0.9,2.0,82,0.00,,,0.00,WUHU216HW,2013-11-21 01:50:00,
2013-11-20 20:55:00,56.5,51.4,30.24,NE,45,1.1,1.3,83,0.00,,,0.00,WUHU216HW,2013-11-21 01:55:00,
2013-11-20 21:00:00,56.5,51.4,30.24,NNE,23,0.9,1.6,83,0.00,,,0.00,WUHU216HW,2013-11-21 02:00:00,
2013-11-20 21:05:00,56.7,51.6,30.25,NE,45,2.5,2.7,83,0.00,,,0.00,WUHU216HW,2013-11-21 02:05:00,
2013-11-20 21:10:00,56.7,51.6,30.25,NE,45,1.8,2.7,83,0.00,,,0.00,WUHU216HW,2013-11-21 02:10:00,
2013-11-20 21:15:00,56.9,51.8,30.24,ENE,68,2.5,2.5,83,0.00,,,0.00,WUHU216HW,2013-11-21 02:15:00,
2013-11-20 21:20:00,56.9,51.4,30.24,NE,45,2.0,3.1,82,0.00,,,0.00,WUHU216HW,2013-11-21 02:20:00,
2013-11-20 21:25:00,56.9,51.8,30.25,NE,45,1.1,3.1,83,0.00,,,0.00,WUHU216HW,2013-11-21 02:25:00,
2013-11-20 21:30:00,56.9,51.8,30.25,NE,45,0.7,1.8,83,0.00,,,0.00,WUHU216HW,2013-11-21 02:30:00,
2013-11-20 21:35:00,56.9,51.8,30.25,NNE,23,1.1,2.0,83,0.00,,,0.00,WUHU216HW,2013-11-21 02:35:00,
2013-11-20 21:40:00,56.9,51.8,30.25,NNE,23,1.1,2.2,83,0.00,,,0.00,WUHU216HW,2013-11-21 02:40:00,
2013-11-20 21:45:00,57.1,51.6,30.25,NE,45,1.8,2.2,82,0.00,,,0.00,WUHU216HW,2013-11-21 02:45:00,
2013-11-20 21:50:00,57.1,51.6,30.25,NE,45,2.5,2.5,82,0.00,,,0.00,WUHU216HW,2013-11-21 02:50:00,
2013-11-20 21:55:00,57.1,51.6,30.25,NNE,23,1.3,2.5,82,0.00,,,0.00,WUHU216HW,2013-11-21 02:55:00,
2013-11-20 22:00:00,57.1,51.6,30.25,NNE,23,1.3,2.5,82,0.00,,,0.00,WUHU216HW,2013-11-21 03:00:00,
2013-11-20 22:05:00,57.2,51.8,30.25,NE,45,1.8,2.7,82,0.00,,,0.00,WUHU216HW,2013-11-21 03:05:00,
2013-11-20 22:10:00,57.2,51.8,30.24,NNE,23,2.2,2.9,82,0.00,,,0.00,WUHU216HW,2013-11-21 03:10:00,
2013-11-20 22:15:00,57.2,51.8,30.24,NNE,23,1.3,2.9,82,0.00,,,0.00,WUHU216HW,2013-11-21 03:15:00,
2013-11-20 22:20:00,57.2,51.8,30.25,NE,45,1.8,2.5,82,0.00,,,0.00,WUHU216HW,2013-11-21 03:20:00,
2013-11-20 22:25:00,57.2,51.8,30.25,NNE,23,0.7,2.5,82,0.00,,,0.00,WUHU216HW,2013-11-21 03:25:00,
2013-11-20 22:30:00,57.2,51.8,30.25,NE,45,1.3,2.5,82,0.00,,,0.00,WUHU216HW,2013-11-21 03:30:00,
2013-11-20 22:35:00,57.2,51.8,30.25,North,0,1.1,2.5,82,0.00,,,0.00,WUHU216HW,2013-11-21 03:35:00,
2013-11-20 22:40:00,57.2,51.8,30.25,NE,45,1.3,2.7,82,0.00,,,0.00,WUHU216HW,2013-11-21 03:40:00,
2013-11-20 22:45:00,57.2,51.8,30.26,NE,45,1.8,2.7,82,0.00,,,0.00,WUHU216HW,2013-11-21 03:45:00,
2013-11-20 22:50:00,57.2,51.8,30.26,NE,45,2.0,2.2,82,0.00,,,0.00,WUHU216HW,2013-11-21 03:50:00,
2013-11-20 22:55:00,57.4,51.9,30.25,NNE,23,1.1,2.0,82,0.00,,,0.00,WUHU216HW,2013-11-21 03:55:00,
2013-11-20 23:00:00,57.4,51.9,30.25,NNE,23,1.3,2.7,82,0.00,,,0.00,WUHU216HW,2013-11-21 04:00:00,
2013-11-20 23:05:00,57.4,51.9,30.25,NE,45,1.8,2.7,82,0.00,,,0.00,WUHU216HW,2013-11-21 04:05:00,
2013-11-20 23:10:00,57.4,51.9,30.25,NNE,23,1.1,2.0,82,0.00,,,0.00,WUHU216HW,2013-11-21 04:10:00,
2013-11-20 23:15:00,57.4,51.9,30.25,NNE,23,1.8,3.1,82,0.00,,,0.00,WUHU216HW,2013-11-21 04:15:00,
2013-11-20 23:20:00,57.4,51.9,30.25,NE,45,2.5,3.1,82,0.00,,,0.00,WUHU216HW,2013-11-21 04:20:00,
2013-11-20 23:25:00,57.4,51.9,30.24,NE,45,2.0,3.1,82,0.00,,,0.00,WUHU216HW,2013-11-21 04:25:00,
2013-11-20 23:30:00,57.4,51.9,30.24,ENE,68,2.7,3.1,82,0.00,,,0.00,WUHU216HW,2013-11-21 04:30:00,
2013-11-20 23:35:00,57.4,51.9,30.24,NE,45,2.9,3.1,82,0.00,,,0.00,WUHU216HW,2013-11-21 04:35:00,
2013-11-20 23:40:00,57.4,51.9,30.24,North,0,1.8,2.9,82,0.00,,,0.00,WUHU216HW,2013-11-21 04:40:00,
2013-11-20 23:45:00,57.4,51.9,30.24,NE,45,1.3,2.0,82,0.00,,,0.00,WUHU216HW,2013-11-21 04:45:00,
2013-11-20 23:50:00,57.2,51.8,30.24,NE,45,1.8,2.9,82,0.00,,,0.00,WUHU216HW,2013-11-21 04:50:00,
2013-11-20 23:55:00,57.2,51.8,30.24,North,0,1.6,2.9,82,0.00,,,0.00,WUHU216HW,2013-11-21 04:55:00,